Hourly Data Report for July 11, 2021

FLIN FLON
MANITOBA
Current Station Operator: ECCC - MSC

54°41'00.000" N
101°41'00.000" W
303.90 m
5050919
71954
WFO

Download Data

Hourly Data (July 2021)
Hourly Data Report for July 11, 2021
TIME
LST
Temp Definition
°C
Dew Point Definition
°C
Rel Hum Definition
%
Precip. Amount Definition
mm

Wind Dir Definition
10's deg

Wind Spd Definition
km/h
Visibility Definition
km
Stn Press Definition
kPa
Hmdx Definition


Wind Chill Definition


Weather Definition


00:00 25.4 17.8 63 0.0 20 16   97.63 31   LegendNANA
01:00 27.6 13.4 42 0.0 26 14   97.58 31   LegendNANA
02:00 27.6 11.9 38 0.0 25 14   97.49 30   LegendNANA
03:00 24.7 13.6 50 0.0 23 15   97.48 28   LegendNANA
04:00 22.0 15.5 67 0.0 20 6   97.50 26   LegendNANA
05:00 22.3 17.0 72 0.0 19 9   97.48 28   LegendNANA
06:00 22.6 16.1 67 0.0 21 12   97.46 27   LegendNANA
07:00 24.1 15.5 59 0.0 21 14   97.41 28   LegendNANA
08:00 25.0 15.7 56 0.0 20 13   97.37 29   LegendNANA
09:00 26.4 15.8 52 0.0 20 14   97.31 31   LegendNANA
10:00 28.0 14.7 44 0.0 24 19   97.31 32   LegendNANA
11:00 26.7 15.2 49 0.0 18 10   97.26 31   LegendNANA
12:00 26.9 15.9 51 0.0 25 14   97.28 31   LegendNANA
13:00 29.2 15.8 44 0.0 20 19   97.26 34   LegendNANA
14:00 31.1 14.1 36 0.0 21 18   97.17 35   LegendNANA
15:00 31.4 14.5 36 0.0 24 15   97.14 35   LegendNANA
16:00 30.3 12.8 34 0.0 27 18   97.13 33   LegendNANA
17:00 30.2 12.9 35 0.0 27 15   97.11 33   LegendNANA
18:00 30.1 11.4 32 0.0 25 11   97.07 32   LegendNANA
19:00 29.2 12.7 36 0.0 30 10   97.03 32   LegendNANA
20:00 27.6 11.7 37 0.0 35 7   97.10 30   LegendNANA
21:00 26.4 15.2 50 0.0 31 2   97.12 30   LegendNANA
22:00 24.1 11.5 45 0.0 33 4   97.13 26   LegendNANA
23:00 22.9 12.0 50 0.0 0 1   97.11 25   LegendNANA

Notes on Data Quality.

Legend

  • E = Estimated
  • M = Missing
  • NA = Not Available*
  • [empty] = Indicates an unobserved value
Date modified: